Regional Weather Roundup
Issued by NWS

Home | Current Version | Previous Version | Graphics & Text | Print | Product List | Glossary On
Versions: 1 2 3 4 5 6 7 8 9 10 11 12 13 14 15 16 17 18 19 20 21 22 23 24 25 26 27 28 29 30 31 32 33 34 35 36 37 38 39 40 41 42 43 44 45 46 47 48 49 50
000
ASUS43 KMKX 272000
RWRWI

WISCONSIN REGIONAL WEATHER ROUNDUP
NATIONAL WEATHER SERVICE MILWAUKEE/SULLIVAN WI
300 PM CDT SUN MAY 27 2018

NOTE: "FAIR" INDICATES FEW OR NO CLOUDS BELOW 12,000 FEET WITH NO
SIGNIFICANT WEATHER AND/OR OBSTRUCTIONS TO VISIBILITY.

WIZ001-002-006>008-014>016-023>028-272100-
NORTHWEST WISCONSIN

CITY           SKY/WX    TMP DP  RH WIND       PRES   REMARKS
SUPERIOR ARPT  FAIR      85  57  38 CALM      29.76R HX  84
ASHLAND        FAIR      86  63  45 E3        29.82F HX  87
HAYWARD        FAIR      83  59  44 S7        29.85F HX  83
SIREN          FAIR      78  56  46 NE5       29.81F
CUMBERLAND     FAIR      79  52  38 E8        29.85F
RICE LAKE      FAIR      85  52  31 NW9G20    29.93R HX  83
CHETEK         FAIR      88  57  34 NW7G16    29.91R HX  87
LADYSMITH      FAIR      88  54  31 NW10      29.92R HX  85
EAU CLAIRE     NOT AVBL
MENOMONIE      FAIR      86  57  36 NW7       29.87F HX  85
NEW RICHMOND   FAIR      82  56  40 CALM      29.83F HX  82
OSCEOLA        FAIR      83  56  39 S10G18    29.84F HX  82
$$

WIZ003>005-009-010-017-018-272100-
NORTH CENTRAL WISCONSIN

CITY           SKY/WX    TMP DP  RH WIND       PRES   REMARKS
MANITOWISH WTR FAIR      84  56  37 NW7       29.91S HX  83
ARBOR VITAE    FAIR      87  54  31 NW5       29.90F HX  85
WOODRUFF       FAIR      87  54  31 NW5       29.90F HX  85
RHINELANDER    FAIR      93  51  23 W15G22    29.91S HX  90
EAGLE RIVER    FAIR      86  46  25 W9        29.90S HX  83
LAND O LAKES   FAIR      86  48  26 W10G17    29.92S HX  83
PHILLIPS       FAIR      87  56  34 W7G16     29.92R HX  85
TOMAHAWK       FAIR      88  47  24 W12G22    29.90S HX  85
MEDFORD        FAIR      90  53  28 NW14G20   29.90F HX  87
MERRILL        FAIR      92  52  26 W15G22    29.90S HX  89
$$

WIZ029-030-035-036-043>047-272100-
CENTRAL WISCONSIN

CITY           SKY/WX    TMP DP  RH WIND       PRES   REMARKS
WAUSAU         FAIR      92  49  22 NW8       29.88R HX  89
MOSINEE        PTSUNNY   90  52  27 NW10G20   29.91R HX  87
MARSHFIELD     FAIR      92  55  28 NW13      29.89S HX  90
STEVENS POINT  FAIR      90  52  26 NW7       29.89S HX  87
WAUPACA        FAIR      96  46  18 NW8       29.86S HX  92
WAUTOMA        NOT AVBL
WISC RAPIDS    FAIR      94  52  24 NW8       29.90R HX  91
CAMP DOUGLAS   FAIR      94  54  25 NW8G17    29.88R HX  92
$$

WIZ011>013-019>022-031-037>040-048>050-272100-
NORTHEAST WISCONSIN

CITY           SKY/WX    TMP DP  RH WIND       PRES   REMARKS
ANTIGO         FAIR      88  50  26 W16       29.90S HX  86
SHAWANO        FAIR      94  51  22 W7        29.85S HX  91
OCONTO         FAIR      85  61  44 E6        29.85S HX  85
STURGEON BAY   FAIR      82  61  48 E9        29.87S HX  83
GREEN BAY      FAIR      95  56  26 N9        29.84S HX  93
MANITOWOC      NOT AVBL
APPLETON       PTSUNNY   91  45  19 NW14      29.85S HX  88
CLINTONVILLE   FAIR      94  46  19 W18       29.85S HX  90
OSHKOSH        FAIR      94  62  34 VRB6      29.85S HX  94
$$

WIZ032>034-041-042-053>061-272100-
SOUTHWEST WISCONSIN

CITY           SKY/WX    TMP DP  RH WIND       PRES   REMARKS
LA CROSSE      FAIR      97  55  24 VRB6      29.84F HX  95
SPARTA         FAIR      95  51  22 NW7       29.88S HX  92
VIROQUA        FAIR      93  53  26 N10       29.90S HX  90
BOSCOBEL       FAIR      96  65  35 VRB6      29.85S HX  98
PRAIRIE DU CHI FAIR      93  62  35 NW7       29.85S HX  93
PLATTEVILLE    FAIR      92  60  34 NW3       29.88S HX  91
$$

WIZ056-057-062-063-064-067-068-272100-
SOUTH CENTRAL WISCONSIN

CITY           SKY/WX    TMP DP  RH WIND       PRES   REMARKS
REEDSBURG      FAIR      94  62  34 N8        29.87S HX  94
BARABOO/DELLS  FAIR      93  52  24 N5        29.87S HX  90
LONE ROCK      NOT AVBL
MINERAL POINT  FAIR      93  63  36 CALM      29.89S HX  94
MADISON        PTSUNNY   93  66  40 SW5       29.85S HX  96
MIDDLETON      FAIR      94  58  28 W7        29.87S HX  93
WATERTOWN      FAIR      90  61  37 W8        29.85F HX  90
MONROE         FAIR      93  57  29 SW7       29.87F HX  92
JANESVILLE     MOSUNNY   95  55  26 SW6       29.86F HX  93
$$

WIZ051-052-058>065-066-070>072-272100-
SOUTHEAST WISCONSIN

CITY           SKY/WX    TMP DP  RH WIND       PRES   REMARKS
MILWAUKEE      PTSUNNY   89  67  47 SE13      29.84F HX  92
WAUKESHA       SUNNY     88  61  40 SW3       29.87F HX  88
MILWAUKEE/TIMM SUNNY     93  52  24 W9        29.86F HX  90
RACINE         FAIR      87  63  44 S14       29.88F HX  88
BURLINGTON     FAIR      93  55  28 CALM      29.87S HX  91
KENOSHA        PTSUNNY   92  67  43 SE8       29.86F HX  95
FOND DU LAC    FAIR      91  61  36 NE13      29.85S HX  91
SHEBOYGAN      FAIR      89  64  43 NE8       29.85S HX  90
WEST BEND      PTSUNNY   90  61  37 W6        29.86S HX  89
JUNEAU         PTSUNNY   91  63  39 W5        29.87S HX  92
$$

LSZ147-162-272100-
LAKE SUPERIOR

STATION/POSITION TIME  TEMP    WIND        PRES    WAVE
                       AIR SEA DIR/SP/G            HT/PER
                 (UTC) (F)     (DEG/KT/KT) (MB)    (FT/S)
W MID LAKE BUOY  1850   39 37  140/  4/  6 1011.8F   0
DEVILS ISLAND    1900   65     130/  4/  5 1010.4F
SAXON HARBOR     1930   68      CALM  /  1 1010.5F
$$

LMZ867-665-643>646-272100-
LAKE MICHIGAN

STATION/POSITION TIME  TEMP    WIND        PRES    WAVE
                       AIR SEA DIR/SP/G            HT/PER
                 (UTC) (F)     (DEG/KT/KT) (MB)    (FT/S)
N MID LAKE BUOY  1940   42 38  190/  6/  8 1011.7R
NORTHPORT PIER   1940   67     140/  5/  6 1011.2S
KEWAUNEE LAKESHO 1930   62     160/  5/  5 1011.1S
SHEBOYGAN LAKESH 1900   63     170/ 16/ 17 1010.5R
PORT WASHINGTON  1930   67     160/  4/  8 1011.9S
ATWATER BUOY     1907   62 56  190/  8/ 12 1011.1    1
MILWAUKEE LAKESH 1930   65     140/  9/ 11   N/A
S MID LAKE BUOY  1850   54 47  180/  4/  4 1012.7F   0
KENOSHA   LAKESH 1900   68                 1011.5
$$

TC  - TEMPERATURE IN CELSIUS
VSB - VISIBILITY IN STATUTE MILES
WCI - WIND CHILL INDEX
HX  - HEAT INDEX




USA.gov is the U.S. government's official web portal to all federal, state and local government web resources and services.